[[{"header":{"parameterUnit":"m.s-1","parameterCategory":1,"la1":30.2992,"la2":30.254,"lo1":-89.0895,"lo2":-89.0443,"dy":0.0025,"dx":0.0025,"nx":19,"ny":19,"refTime":"2026-04-11T09:00:00:Z","depth":0,"parameterNumber":2,"parameterNumberName":"U-component_of_WINDS"},"data":[0,0,0,-2.0106,-2.0107,-2.0156,-2.0156,-2.0239,-2.024,0,0,0,0,0,0,0,0,0,0,0,-2.0105,-2.0106,-2.0106,-2.0107,-2.0156,-2.0156,-2.0239,-2.024,0,0,0,0,0,0,0,0,0,0,0,-2.0104,-2.0105,-2.0107,-2.0107,-2.0156,-2.0156,-2.0239,-2.0195,0,0,0,0,0,0,0,0,0,0,-2.0144,-2.0156,-2.0105,-2.0107,-2.0108,-2.0156,-2.0156,-2.0192,-2.0197,-2.0227,0,-2.0257,0,-2.025,-2.0247,-2.0248,0,0,0,-2.0097,-2.0152,-2.0153,-2.0107,-2.0108,-2.0156,-2.0131,-2.0195,-2.0201,-2.0234,-2.0258,-2.026,-2.0251,-2.0248,-2.0249,-2.0452,-2.0453,0,0,-2.0095,-2.0121,-2.0149,-2.0157,-2.0151,-2.0129,-2.0133,-2.0198,-2.0226,-2.0258,-2.0262,-2.0253,-2.0249,-2.025,-2.0451,-2.0452,0,0,0,-2.0094,-2.0119,-2.0118,-2.0154,-2.0162,-2.0131,-2.0135,-2.0223,-2.022,-2.0262,-2.0254,-2.0249,-2.0251,-2.0449,-2.0451,-2.0548,0,0,0,-2.0091,-2.0119,-2.0117,-2.0134,-2.0161,-2.0193,-2.0158,-2.0216,-2.0222,-2.0253,-2.0249,-2.0252,-2.0447,-2.045,-2.0542,-2.059,0,0,0,-2.0097,-2.0119,-2.0131,-2.0135,-2.0157,-2.0191,-2.0192,-2.0216,-2.0218,-2.0248,-2.0252,-2.0446,-2.045,-2.0536,-2.0581,-2.0652,0,0,0,-2.011,-2.0216,-2.0133,-2.0246,-2.0157,-2.025,-2.0191,-2.0259,-2.0297,-2.025,-2.0448,-2.0451,-2.0535,-2.0575,-2.0646,-2.0718,-2.075,0,0,-2.0258,-2.0234,-2.0299,-2.0226,-2.0341,-2.0241,-2.0369,-2.0379,-2.0357,-2.0422,-2.0426,-2.0544,-2.058,-2.0651,-2.0916,-2.0942,0,0,0,-2.0355,-2.0402,-2.0426,-2.0463,-2.0473,-2.0485,-2.0472,-2.0475,-2.0528,-2.0396,-2.0587,-2.0608,-2.0648,-2.0681,-2.0703,-2.0737,-2.0467,-2.0466,-2.0466,-2.0602,-2.0569,-2.0674,-2.0647,-2.0683,-2.0668,-2.0695,-2.0697,-2.0652,-2.0698,-2.0718,-2.0883,-2.0922,-2.0938,-2.0974,-2.0751,-2.0751,-2.0752,-2.0752,-2.0816,-2.0878,-2.0816,-2.0896,-2.0861,-2.0927,-2.0917,-2.0883,-2.094,-2.0865,-2.0899,-2.0822,-2.0968,-2.0997,-2.0759,-2.0758,-2.0757,-2.0756,-2.0756,-2.0976,-2.1,-2.1002,-2.1052,-2.1094,-2.1062,-2.112,-2.1084,-2.1052,-2.1085,-2.1103,-2.1101,-2.1096,-2.1095,-2.1096,-2.1097,-2.1097,-2.1097,-2.1098,-2.1143,-2.1141,-2.1195,-2.1213,-2.1232,-2.1253,-2.1238,-2.1255,-2.1266,-2.1236,-2.1236,-2.1188,-2.0987,-2.0939,-2.1107,-2.1105,-2.1104,-2.1103,-2.1102,-2.1376,-2.1317,-2.14,-2.1419,-2.1438,-2.1482,-2.1435,-2.1474,-2.1484,-2.1514,-2.1458,-2.1314,-2.1288,-2.127,-2.123,-2.1463,-2.1463,-2.1463,-2.1463,-2.1513,-2.1495,-2.1572,-2.1605,-2.1633,-2.1599,-2.1693,-2.1682,-2.1662,-2.1666,-2.1626,-2.1569,-2.1552,-2.1536,-2.1512,-2.1474,-2.1765,-2.1765,-2.1765,-2.1655,-2.1638,-2.1727,-2.1705,-2.1717,-2.1728,-2.1816,-2.1856,-2.182,-2.1777,-2.1668,-2.1655,-2.1562,-2.1534,-2.149,-2.1455,-2.1384,0,0]},{"header":{"parameterUnit":"m.s-1","parameterCategory":1,"la1":30.2992,"la2":30.254,"lo1":-89.0895,"lo2":-89.0443,"dy":0.0025,"dx":0.0025,"nx":19,"ny":19,"refTime":"2026-04-11T09:00:00:Z","depth":0,"parameterNumber":3,"parameterNumberName":"V-component_of_WINDS"},"data":[0,0,0,-2.7892,-2.7894,-2.7956,-2.7956,-2.8041,-2.8042,0,0,0,0,0,0,0,0,0,0,0,-2.7879,-2.788,-2.7892,-2.7894,-2.7956,-2.7956,-2.8041,-2.8042,0,0,0,0,0,0,0,0,0,0,0,-2.7879,-2.788,-2.7881,-2.7894,-2.7956,-2.7956,-2.8041,-2.7991,0,0,0,0,0,0,0,0,0,0,-2.793,-2.7924,-2.788,-2.7881,-2.7895,-2.7956,-2.7956,-2.7989,-2.7994,-2.8016,0,-2.8038,0,-2.8042,-2.8048,-2.8048,0,0,0,-2.7889,-2.7919,-2.7931,-2.7881,-2.7895,-2.7956,-2.7927,-2.7992,-2.7998,-2.8023,-2.8039,-2.8042,-2.8043,-2.8049,-2.8049,-2.8192,-2.8193,0,0,-2.7886,-2.7893,-2.7927,-2.7936,-2.7929,-2.7925,-2.7929,-2.7996,-2.8013,-2.804,-2.8044,-2.8044,-2.8049,-2.805,-2.8191,-2.8193,0,0,0,-2.7879,-2.7891,-2.7901,-2.7932,-2.7943,-2.7927,-2.7931,-2.801,-2.8013,-2.8045,-2.8045,-2.805,-2.8051,-2.8191,-2.8192,-2.8243,0,0,0,-2.7877,-2.7887,-2.79,-2.7905,-2.7942,-2.7978,-2.7944,-2.8008,-2.8015,-2.8045,-2.805,-2.8052,-2.819,-2.8191,-2.8239,-2.8265,0,0,0,-2.7873,-2.7886,-2.7897,-2.7905,-2.7932,-2.7977,-2.7983,-2.8009,-2.8016,-2.8049,-2.8052,-2.8189,-2.8191,-2.8236,-2.826,-2.8304,0,0,0,-2.7871,-2.7941,-2.7898,-2.7976,-2.7932,-2.8008,-2.7983,-2.8039,-2.8073,-2.805,-2.819,-2.8192,-2.8235,-2.8257,-2.8301,-2.8343,-2.8361,0,0,-2.7963,-2.7952,-2.7998,-2.7961,-2.8048,-2.7998,-2.8091,-2.8115,-2.8111,-2.8165,-2.8168,-2.824,-2.826,-2.8304,-2.8462,-2.8477,0,0,0,-2.8029,-2.8062,-2.8083,-2.8117,-2.8138,-2.8157,-2.8166,-2.8175,-2.8221,-2.8141,-2.8268,-2.828,-2.8305,-2.8325,-2.8337,-2.8358,-2.8201,-2.8201,-2.8201,-2.8168,-2.8161,-2.8235,-2.8234,-2.8267,-2.8276,-2.8301,-2.8314,-2.8295,-2.8326,-2.8342,-2.8439,-2.8462,-2.8472,-2.8494,-2.8363,-2.8364,-2.8364,-2.8364,-2.8302,-2.8346,-2.8321,-2.8384,-2.8375,-2.8426,-2.8437,-2.8422,-2.8468,-2.8427,-2.8449,-2.8403,-2.8488,-2.8507,-2.8368,-2.8367,-2.8367,-2.8366,-2.8366,-2.8392,-2.8412,-2.8422,-2.847,-2.8507,-2.8503,-2.8549,-2.8538,-2.8528,-2.855,-2.8565,-2.8564,-2.8561,-2.8558,-2.8559,-2.8559,-2.8559,-2.856,-2.856,-2.8481,-2.8491,-2.8531,-2.856,-2.858,-2.8604,-2.8614,-2.8632,-2.865,-2.8638,-2.8639,-2.8616,-2.8498,-2.8468,-2.8565,-2.8564,-2.8563,-2.8563,-2.8563,-2.8617,-2.8585,-2.8648,-2.8668,-2.87,-2.8737,-2.8723,-2.8762,-2.8776,-2.8798,-2.8771,-2.8686,-2.8674,-2.8664,-2.8639,-2.8774,-2.8774,-2.8774,-2.8774,-2.8693,-2.8686,-2.8748,-2.878,-2.8811,-2.8805,-2.8874,-2.8882,-2.8884,-2.8892,-2.8871,-2.8837,-2.8827,-2.8821,-2.8807,-2.8784,-2.8952,-2.8953,-2.8953,-2.8776,-2.8772,-2.8834,-2.8837,-2.8861,-2.8881,-2.8946,-2.8983,-2.8978,-2.896,-2.8897,-2.889,-2.8835,-2.8818,-2.8798,-2.8777,-2.8734,0,0]}]]